[[{"header":{"parameterUnit":"m.s-1","parameterCategory":1,"la1":30.2991,"la2":30.254,"lo1":-89.0895,"lo2":-89.0444,"dy":0.0017,"dx":0.0017,"nx":28,"ny":28,"refTime":"2023-09-27T21:00:00:Z","depth":0,"parameterNumber":2,"parameterNumberName":"U-component_of_WINDS"},"data":[0,0,0,0,0,0,0,0,0,0,0,0,0,0,0,0,0,0,0,0,0,0,0,0,0,0,0,0,0,0,0,0,0,0,0,0,0,0,0,0,0,0,0,0,0,0,0,0,0,0,0,0,0,0,0,0,0,0,-5.4742,-5.4742,0,-5.4769,-5.477,-5.477,-5.4626,-5.4622,-5.4618,-5.4614,-5.4644,-5.4648,-5.4653,0,0,0,0,0,0,0,0,0,0,0,0,0,-5.4565,-5.4569,-5.4742,-5.4742,-5.4742,-5.4769,-5.477,-5.477,-5.4627,-5.4622,-5.4617,-5.4612,-5.4642,-5.4648,-5.4653,0,0,0,0,0,0,0,0,0,0,0,0,0,-5.4622,-5.457,-5.4742,-5.4674,-5.4668,-5.4769,-5.477,-5.477,-5.4628,-5.4622,-5.4616,-5.461,-5.464,-5.4647,-5.4654,-5.4821,0,0,-5.4675,-5.4678,0,0,0,0,0,0,0,0,-5.4619,-5.4629,-5.4684,-5.4679,-5.4673,-5.4688,-5.4718,-5.4787,-5.463,-5.4644,-5.4614,-5.4607,-5.4664,-5.4668,-5.4687,-5.4823,-5.4824,-5.4676,-5.468,-5.4683,-5.4685,0,0,0,0,0,0,0,-5.4615,-5.4627,-5.4752,-5.4685,-5.4678,-5.4643,-5.4644,-5.4731,-5.4688,-5.4642,-5.4631,-5.4637,-5.4659,-5.4681,-5.4687,-5.4824,-5.4676,-5.4682,-5.4686,-5.4689,-5.5098,-5.5104,0,0,0,0,0,0,-5.462,-5.4624,-5.4752,-5.4753,-5.463,-5.4651,-5.4652,-5.4689,-5.4687,-5.468,-5.4642,-5.463,-5.4672,-5.4679,-5.4687,-5.4882,-5.4683,-5.469,-5.4694,-5.5091,-5.5099,-5.5106,0,0,0,0,0,0,-5.4617,-5.4633,-5.475,-5.4686,-5.4698,-5.466,-5.4703,-5.4693,-5.4714,-5.4687,-5.4679,-5.4672,-5.4667,-5.4677,-5.4789,-5.4881,-5.4693,-5.4699,-5.5083,-5.5093,-5.5103,-5.5273,0,0,0,0,0,0,-5.4613,-5.4633,-5.4696,-5.4689,-5.4702,-5.4852,-5.4709,-5.4698,-5.4727,-5.4711,-5.4712,-5.4707,-5.4663,-5.4779,-5.4796,-5.4887,-5.4705,-5.5075,-5.5088,-5.51,-5.5259,-5.5288,-5.5313,0,0,0,0,0,-5.4607,-5.4743,-5.47,-5.4716,-5.4781,-5.4858,-5.4865,-5.4812,-5.4735,-5.4798,-5.478,-5.4707,-5.4869,-5.4792,-5.4809,-5.4904,-5.5069,-5.5084,-5.5099,-5.5247,-5.5282,-5.5312,0,0,0,0,0,0,-5.4763,-5.4741,-5.4693,-5.4831,-5.4847,-5.4833,-5.4911,-5.4851,-5.489,-5.4874,-5.4807,-5.4808,-5.4931,-5.4929,-5.4844,-5.5065,-5.4955,-5.4974,-5.5062,-5.5095,-5.5121,-5.5119,-5.471,0,0,0,0,0,-5.4813,-5.4877,-5.4855,-5.4979,-5.499,-5.495,-5.4981,-5.4939,-5.4953,-5.4959,-5.4949,-5.4966,-5.502,-5.5058,-5.5106,-5.5259,-5.5256,-5.5333,-5.5359,-5.5381,-5.5398,-5.5478,-5.5511,-5.5156,-5.5155,-5.5155,0,0,-5.4918,-5.4914,-5.4959,-5.501,-5.5018,-5.5086,-5.4956,-5.5034,-5.5083,-5.4971,-5.5075,-5.5069,-5.5083,-5.5215,-5.5273,-5.5217,-5.5496,-5.54,-5.5418,-5.5423,-5.5497,-5.553,-5.556,-5.5166,-5.5164,-5.5162,0,0,-5.5143,-5.5147,-5.525,-5.5261,-5.5274,-5.5246,-5.5271,-5.5266,-5.5258,-5.5361,-5.5278,-5.5336,-5.5432,-5.5445,-5.5464,-5.5695,-5.5629,-5.5713,-5.5851,-5.593,-5.5958,-5.5982,-5.6063,-5.6093,-5.573,-5.5731,-5.5731,0,-5.5272,-5.5371,-5.5311,-5.5394,-5.5419,-5.532,-5.5424,-5.5437,-5.5466,-5.5485,-5.5422,-5.5539,-5.5542,-5.5676,-5.5732,-5.5751,-5.5777,-5.5712,-5.5958,-5.5982,-5.6004,-5.6081,-5.6112,-5.5741,-5.574,-5.5738,-5.5738,0,-5.5528,-5.5598,-5.5679,-5.5709,-5.5743,-5.5836,-5.5791,-5.5833,-5.5788,-5.5767,-5.5873,-5.5873,-5.592,-5.5948,-5.5906,-5.6076,-5.6041,-5.597,-5.5857,-5.6049,-5.612,-5.6149,-5.5755,-5.5751,-5.5748,-5.5746,0,0,-5.5851,-5.5847,-5.5878,-5.5889,-5.5896,-5.5949,-5.6038,-5.6083,-5.612,-5.6143,-5.6215,-5.6298,-5.6232,-5.6254,-5.6212,-5.6281,-5.6463,-5.62,-5.62,-5.6248,-5.6649,-5.6702,-5.6738,-5.6419,-5.6424,-5.6429,-5.6648,0,-5.6071,-5.6221,-5.617,-5.6323,-5.6387,-5.6294,-5.6371,-5.6384,-5.6367,-5.6418,-5.6399,-5.6459,-5.6367,-5.638,-5.6444,-5.6427,-5.6542,-5.6411,-5.6485,-5.6489,-5.6483,-5.6775,-5.6831,-5.7038,-5.6675,-5.668,-5.6683,0,-5.6347,-5.6381,-5.654,-5.6535,-5.656,-5.663,-5.6667,-5.6717,-5.673,-5.6713,-5.6738,-5.6681,-5.6767,-5.6656,-5.6774,-5.6686,-5.6714,-5.671,-5.6717,-5.6721,-5.6597,-5.6786,-5.7102,-5.7133,-5.6727,-5.6723,-5.672,0,-5.6566,-5.6651,-5.6757,-5.677,-5.6768,-5.6819,-5.6821,-5.6827,-5.6857,-5.689,-5.6908,-5.6951,-5.6975,-5.7009,-5.6965,-5.6888,-5.709,-5.6975,-5.7078,-5.7079,-5.7123,-5.7121,-5.7448,-5.7144,-5.7144,-5.7143,-5.7142,0,-5.6816,-5.6917,-5.6855,-5.692,-5.703,-5.6971,-5.7082,-5.7073,-5.708,-5.7141,-5.7064,-5.7124,-5.7063,-5.7117,-5.7084,-5.7187,-5.7198,-5.7186,-5.7176,-5.7193,-5.7194,-5.7209,-5.7193,-5.7151,-5.7149,-5.7148,-5.7146,0,-5.7078,-5.7041,-5.715,-5.7139,-5.7139,-5.722,-5.721,-5.727,-5.7248,-5.7327,-5.7342,-5.7307,-5.7367,-5.7327,-5.7388,-5.7365,-5.7499,-5.747,-5.7495,-5.7486,-5.7591,-5.7581,-5.7938,-5.7982,-5.7651,-5.7654,-5.7657,0,-5.7239,-5.7315,-5.7311,-5.7347,-5.7353,-5.7412,-5.7442,-5.7387,-5.7421,-5.7441,-5.7499,-5.7552,-5.7591,-5.7691,-5.7672,-5.7717,-5.7687,-5.7809,-5.7694,-5.7708,-5.7688,-5.7684,-5.769,-5.7833,-5.7836,-5.784,-5.7842,0,-5.7529,-5.7507,-5.7553,-5.7593,-5.7631,-5.766,-5.7683,-5.7717,-5.7661,-5.7704,-5.7764,-5.7794,-5.7856,-5.7909,-5.7947,-5.7949,-5.7887,-5.7879,-5.7905,-5.7922,-5.7933,-5.7927,-5.7557,-5.7871,-5.7868,-5.7866,-5.7864,-5.7863,-5.7745,-5.7807,-5.7814,-5.7868,-5.7879,-5.7903,-5.7958,-5.7942,-5.7991,-5.8036,-5.8,-5.8072,-5.8082,-5.8127,-5.8136,-5.8191,-5.8142,-5.818,-5.8189,-5.8199,-5.8213,-5.7925,-5.8198,-5.8197,-5.8197,-5.8196,-5.8195,0,-5.803,-5.803,-5.808,-5.8114,-5.8156,-5.8094,-5.8116,-5.8155,-5.8219,-5.8234,-5.8274,-5.8342,-5.8394,-5.8379,-5.8425,-5.8472,-5.8445,-5.8486,-5.8481,-5.8482,-5.8255,-5.8228,-5.8507,-5.8507,-5.8507,-5.8507,-5.8507,-5.8507,-5.8183,-5.8284,-5.8263,-5.837,-5.8368,-5.8437,-5.8455,-5.8476,-5.8487,-5.8567,-5.8609,-5.8598,-5.8601,-5.8647,-5.8691,-5.8685,-5.8706,-5.8757,-5.8741,-5.8529,-5.8498,-5.8469,-5.8443,-5.8762,-5.8763,-5.8963,-5.8965,-5.8966]},{"header":{"parameterUnit":"m.s-1","parameterCategory":1,"la1":30.2991,"la2":30.254,"lo1":-89.0895,"lo2":-89.0444,"dy":0.0017,"dx":0.0017,"nx":28,"ny":28,"refTime":"2023-09-27T21:00:00:Z","depth":0,"parameterNumber":3,"parameterNumberName":"V-component_of_WINDS"},"data":[0,0,0,0,0,0,0,0,0,0,0,0,0,0,0,0,0,0,0,0,0,0,0,0,0,0,0,0,0,0,0,0,0,0,0,0,0,0,0,0,0,0,0,0,0,0,0,0,0,0,0,0,0,0,0,0,0,0,-2.0167,-2.0168,0,-2.0211,-2.0211,-2.0212,-2.0221,-2.0221,-2.022,-2.022,-2.0261,-2.0263,-2.0264,0,0,0,0,0,0,0,0,0,0,0,0,0,-2.0086,-2.0088,-2.0167,-2.0168,-2.0168,-2.0211,-2.0211,-2.0212,-2.0221,-2.0221,-2.022,-2.022,-2.0261,-2.0262,-2.0264,0,0,0,0,0,0,0,0,0,0,0,0,0,-2.0125,-2.0088,-2.0167,-2.0178,-2.0179,-2.0211,-2.0211,-2.0212,-2.0221,-2.0221,-2.022,-2.022,-2.026,-2.0262,-2.0264,-2.0287,0,0,-2.0271,-2.0272,0,0,0,0,0,0,0,0,-2.0123,-2.0128,-2.0176,-2.0177,-2.0179,-2.021,-2.0198,-2.0237,-2.0221,-2.0205,-2.022,-2.022,-2.0244,-2.0248,-2.0257,-2.0289,-2.029,-2.0271,-2.0272,-2.0273,-2.0274,0,0,0,0,0,0,0,-2.012,-2.0126,-2.0184,-2.0176,-2.0178,-2.0179,-2.0184,-2.0205,-2.0227,-2.0207,-2.0207,-2.0213,-2.0245,-2.0255,-2.0258,-2.0291,-2.0271,-2.0273,-2.0274,-2.0275,-2.0341,-2.0341,0,0,0,0,0,0,-2.0116,-2.0124,-2.0183,-2.0186,-2.0149,-2.0181,-2.0186,-2.02,-2.0227,-2.023,-2.0213,-2.0213,-2.0251,-2.0255,-2.0259,-2.0286,-2.0273,-2.0275,-2.0276,-2.034,-2.0341,-2.0341,0,0,0,0,0,0,-2.0114,-2.0121,-2.0181,-2.0155,-2.0163,-2.0183,-2.0198,-2.0202,-2.0211,-2.0231,-2.0235,-2.0219,-2.0251,-2.0256,-2.028,-2.0288,-2.0276,-2.0278,-2.034,-2.0341,-2.0341,-2.034,0,0,0,0,0,0,-2.0112,-2.012,-2.0131,-2.0155,-2.0164,-2.0202,-2.0199,-2.0203,-2.0215,-2.0216,-2.0238,-2.0242,-2.0251,-2.0276,-2.0282,-2.029,-2.0279,-2.0339,-2.034,-2.0341,-2.034,-2.0341,-2.0342,0,0,0,0,0,-2.0109,-2.0128,-2.0131,-2.0138,-2.0177,-2.0203,-2.0208,-2.0219,-2.0216,-2.0225,-2.0238,-2.0241,-2.0286,-2.0279,-2.0285,-2.0294,-2.0339,-2.034,-2.0341,-2.0339,-2.0341,-2.0342,0,0,0,0,0,0,-2.0103,-2.0132,-2.0135,-2.0163,-2.018,-2.0204,-2.0216,-2.0221,-2.0239,-2.0238,-2.0251,-2.0256,-2.0278,-2.0288,-2.028,-2.0316,-2.0312,-2.0314,-2.0308,-2.031,-2.0311,-2.0308,-2.0281,0,0,0,0,0,-2.0105,-2.0125,-2.0148,-2.017,-2.0179,-2.0196,-2.0208,-2.0215,-2.0233,-2.024,-2.0255,-2.0271,-2.0288,-2.03,-2.0317,-2.0341,-2.0345,-2.035,-2.0351,-2.0352,-2.0354,-2.0365,-2.0367,-2.0345,-2.0345,-2.0345,0,0,-2.0109,-2.0127,-2.0139,-2.017,-2.0184,-2.0203,-2.0202,-2.0222,-2.0236,-2.0243,-2.0266,-2.0277,-2.0295,-2.0319,-2.0329,-2.0328,-2.0361,-2.0354,-2.0354,-2.0355,-2.0367,-2.0369,-2.0371,-2.0346,-2.0346,-2.0346,0,0,-2.0126,-2.0143,-2.0163,-2.0177,-2.0199,-2.021,-2.0214,-2.0237,-2.0245,-2.0268,-2.0274,-2.0289,-2.0319,-2.0332,-2.0343,-2.0362,-2.0365,-2.0368,-2.0373,-2.0385,-2.0386,-2.0388,-2.0394,-2.0396,-2.0369,-2.0369,-2.0369,0,-2.0129,-2.0158,-2.0172,-2.0191,-2.0204,-2.0212,-2.0231,-2.0244,-2.027,-2.0277,-2.0275,-2.0313,-2.0326,-2.0352,-2.0356,-2.0365,-2.0369,-2.0365,-2.0385,-2.0387,-2.0389,-2.0394,-2.0397,-2.0369,-2.0369,-2.0369,-2.0369,0,-2.0159,-2.0179,-2.0192,-2.0218,-2.0232,-2.0251,-2.0265,-2.0277,-2.0283,-2.0294,-2.0316,-2.0332,-2.0352,-2.0359,-2.0365,-2.0385,-2.0383,-2.0383,-2.0379,-2.0391,-2.0396,-2.0398,-2.037,-2.037,-2.037,-2.037,0,0,-2.0174,-2.0206,-2.0211,-2.0222,-2.0246,-2.0261,-2.0279,-2.03,-2.0309,-2.0326,-2.0341,-2.0366,-2.0366,-2.0378,-2.0385,-2.0395,-2.0408,-2.0393,-2.0394,-2.0394,-2.0429,-2.0428,-2.043,-2.041,-2.041,-2.041,-2.0427,0,-2.0193,-2.0228,-2.024,-2.0268,-2.0285,-2.0293,-2.0309,-2.0324,-2.0334,-2.0349,-2.0359,-2.0377,-2.0376,-2.0383,-2.0393,-2.0404,-2.0414,-2.0403,-2.0422,-2.0422,-2.0416,-2.0433,-2.0433,-2.0448,-2.0429,-2.0429,-2.043,0,-2.0221,-2.0239,-2.0269,-2.0289,-2.0297,-2.0311,-2.033,-2.0345,-2.0362,-2.0368,-2.0381,-2.0387,-2.0404,-2.04,-2.0423,-2.0415,-2.0423,-2.0429,-2.043,-2.0432,-2.0426,-2.0435,-2.0453,-2.0455,-2.0433,-2.0433,-2.0433,0,-2.0227,-2.0259,-2.0281,-2.029,-2.0315,-2.0324,-2.0335,-2.0351,-2.0362,-2.0378,-2.0385,-2.0403,-2.0412,-2.0425,-2.0434,-2.043,-2.0456,-2.0453,-2.0461,-2.046,-2.0465,-2.0465,-2.0484,-2.0472,-2.0472,-2.0472,-2.0472,0,-2.0247,-2.0264,-2.0284,-2.0297,-2.0316,-2.0329,-2.0347,-2.0358,-2.0372,-2.0386,-2.0393,-2.0406,-2.0419,-2.0432,-2.044,-2.0457,-2.0462,-2.0466,-2.0468,-2.0465,-2.0464,-2.047,-2.0469,-2.0472,-2.0472,-2.0472,-2.0472,0,-2.0257,-2.0271,-2.0295,-2.0316,-2.0322,-2.0335,-2.0353,-2.0365,-2.0375,-2.0392,-2.0397,-2.0412,-2.0429,-2.044,-2.0461,-2.0466,-2.0484,-2.0486,-2.0479,-2.048,-2.0487,-2.0486,-2.051,-2.0513,-2.0499,-2.0499,-2.05,0,-2.0269,-2.0282,-2.0305,-2.0316,-2.0327,-2.0343,-2.0355,-2.0367,-2.0378,-2.0397,-2.0407,-2.0424,-2.0438,-2.0464,-2.0476,-2.0492,-2.0493,-2.0501,-2.0496,-2.0492,-2.0492,-2.0491,-2.0492,-2.0501,-2.0502,-2.0502,-2.0502,0,-2.0287,-2.0293,-2.031,-2.0328,-2.0342,-2.0357,-2.0372,-2.038,-2.0394,-2.0406,-2.0424,-2.0435,-2.0456,-2.0473,-2.0489,-2.0498,-2.0502,-2.0503,-2.0506,-2.0503,-2.0498,-2.05,-2.048,-2.0503,-2.0502,-2.0502,-2.0502,-2.0502,-2.0297,-2.0309,-2.0327,-2.0345,-2.0358,-2.0371,-2.0384,-2.0395,-2.041,-2.0429,-2.0435,-2.0453,-2.0468,-2.049,-2.05,-2.0513,-2.0512,-2.0516,-2.0516,-2.0517,-2.0517,-2.0496,-2.0516,-2.0516,-2.0516,-2.0516,-2.0516,0,-2.0315,-2.0327,-2.0343,-2.0364,-2.0378,-2.0381,-2.0397,-2.0408,-2.0424,-2.0438,-2.0452,-2.0471,-2.0487,-2.05,-2.0516,-2.0523,-2.0525,-2.0527,-2.0526,-2.0528,-2.0517,-2.0513,-2.0525,-2.0525,-2.0525,-2.0525,-2.0525,-2.0525,-2.0326,-2.0346,-2.0354,-2.0379,-2.0391,-2.0409,-2.0418,-2.043,-2.0441,-2.0462,-2.0476,-2.0484,-2.0497,-2.0514,-2.0528,-2.0531,-2.0536,-2.0537,-2.0541,-2.053,-2.0529,-2.0528,-2.0524,-2.0538,-2.0538,-2.0551,-2.0551,-2.0551]}]]